Temperature
15 15 14 14 14 14 14 14 14 14 14 14 14 14 14 15 15 15 15 16 16 16 16 16 17 17 17 17 17 17 17 18 18 18 18 18 18 18 18 18 18 18 18
15 14 14 14 14 13 13 13 13 13 13 13 13 13 14 14 14 15 15 15 16 16 16 16 16 16 17 17 17 17 17 17 17 17 18 18 18 18 18 18 18 18 18
14 14 14 14 13 13 13 13 13 13 13 13 13 13 14 14 14 14 15 15 15 15 16 16 16 16 16 16 17 17 17 17 17 17 17 17 17 18 18 18 18 18 18
14 14 14 13 13 13 13 13 13 13 13 13 13 13 13 13 13 14 14 14 15 15 15 15 16 16 16 16 16 16 17 17 17 17 17 17 17 18 17 17 17 17 17
14 14 13 13 13 12 12 12 12 13 13 13 13 13 13 13 13 13 14 14 14 14 15 15 15 15 16 16 16 16 16 16 16 16 16 16 17 17 17 17 17 17 17
14 14 13 13 13 13 12 12 12 12 12 13 13 12 13 13 13 13 13 14 14 14 15 15 15 15 15 15 16 16 16 16 16 16 16 16 16 17 17 17 17 17 17
14 14 13 13 13 12 12 12 12 12 12 12 12 12 12 12 12 13 13 13 14 14 14 14 15 15 15 15 15 15 16 16 16 16 16 16 16 16 16 16 16 16 16
14 14 13 13 13 12 12 12 12 12 12 12 12 12 12 12 12 12 13 13 13 14 14 14 14 14 15 15 15 15 15 15 16 16 16 16 16 16 16 16 16 16 16
14 14 13 13 13 12 12 12 12 12 12 12 12 12 12 12 12 12 13 13 13 13 14 14 14 14 14 15 15 15 15 15 15 15 15 16 15 15 15 15 16 16 15
14 14 14 13 13 13 12 12 12 12 12 12 12 12 12 12 12 12 13 13 13 13 13 14 14 14 14 14 15 15 15 15 15 15 15 15 15 15 15 15 15 15 15
14 14 14 13 13 13 12 12 12 12 12 12 12 12 12 12 12 12 12 13 13 13 13 13 14 14 14 14 14 14 15 15 15 15 15 15 15 15 15 15 15 15 15
15 14 14 14 13 13 13 12 12 12 11 11 12 12 12 12 12 12 12 12 12 13 13 13 13 13 14 14 14 14 14 14 14 14 14 14 14 14 14 14 14 14 15
15 14 14 14 13 13 13 12 12 12 11 11 11 12 12 12 12 12 12 12 12 12 12 13 13 13 13 13 14 14 14 14 14 14 14 14 14 14 14 14 14 14 14
15 15 14 14 14 13 13 12 12 12 12 11 11 11 11 11 11 11 12 12 12 12 12 12 12 13 13 13 13 14 14 14 14 14 14 14 14 14 14 14 14 14 14
15 15 15 14 14 13 13 13 12 12 12 11 11 11 11 11 11 11 11 12 12 12 12 12 12 12 13 13 13 13 13 13 13 13 14 14 14 14 14 14 14 14 14
15 15 15 14 14 14 13 13 12 12 12 11 11 11 11 11 11 11 11 11 11 11 11 12 12 12 12 12 12 13 13 13 13 13 13 13 13 14 14 14 13 13 14
15 15 15 15 14 14 13 13 13 12 12 11 11 11 11 11 11 11 11 11 11 11 11 11 11 11 12 12 12 12 12 12 12 13 13 13 13 13 13 13 13 13 13
16 15 15 15 14 14 14 13 13 12 12 11 11 11 11 11 11 11 11 11 11 11 11 11 11 11 11 11 12 12 12 12 12 12 13 13 13 13 13 13 13 13 13
16 15 15 15 14 14 14 13 13 12 12 12 11 11 11 11 11 11 11 11 11 11 11 11 11 11 11 11 11 12 12 12 12 12 12 13 13 13 13 13 13 13 13
16 16 15 15 14 14 14 13 13 12 12 12 11 11 11 11 11 10 10 10 10 10 10 11 11 11 11 11 11 12 12 12 12 12 12 12 12 13 13 13 13 13 13
16 16 15 15 15 14 14 13 13 12 12 11 11 11 11 11 11 11 11 10 10 10 10 10 11 11 11 11 11 11 12 12 12 12 12 12 12 12 12 12 12 12 12
16 16 15 15 15 14 14 14 13 13 12 12 11 11 11 11 11 11 11 11 11 11 10 10 11 11 11 11 11 11 11 12 12 12 12 12 12 12 12 12 12 12 12
16 16 16 15 15 15 14 14 13 13 12 12 12 11 11 11 11 11 11 11 11 11 11 11 11 10 10 11 11 11 11 11 12 12 12 12 12 12 12 12 12 12 12
17 16 16 16 15 15 15 14 14 13 13 12 12 12 12 11 11 11 11 11 11 11 11 11 11 11 11 11 11 11 11 11 11 11 11 11 11 12 11 11 11 11 11
17 17 16 16 16 15 15 15 14 14 13 13 12 12 12 12 11 11 11 11 11 11 11 11 11 11 11 11 11 11 11 11 11 11 11 11 11 11 11 11 11 11 11
17 17 17 16 16 16 15 15 15 14 14 13 13 12 12 12 11 11 11 11 11 11 11 11 11 11 11 11 11 11 11 11 11 11 11 11 11 11 11 11 11 11 11
Wind_Speed
4 6 7 7 8 8 8 8 8 8 7 5 5 5 5 5 5 4 6 6 6 6 5 6 6 6 7 7 7 5 4 3 2 2 1 2 1 3 4 5 5 6 10
6 7 7 7 8 8 8 8 8 8 8 6 5 4 5 5 5 4 5 6 5 5 5 6 6 7 6 7 7 6 4 3 3 4 3 1 2 1 2 3 5 6 6
5 6 7 7 8 8 9 9 9 9 8 8 5 5 4 4 4 4 4 4 5 5 4 5 5 6 7 7 8 8 7 5 3 3 4 4 5 2 1 1 3 5 5
4 4 6 7 8 8 8 8 9 9 9 8 6 6 5 5 5 5 5 6 5 5 4 4 5 5 5 7 8 8 6 6 5 3 2 2 4 4 2 0 1 3 4
4 5 5 6 7 8 8 8 9 9 9 8 7 6 5 5 5 5 5 5 5 4 4 4 4 5 5 6 7 6 7 6 6 5 4 2 1 2 3 3 1 1 1
4 4 5 6 6 7 8 8 9 9 9 9 8 7 7 7 6 6 6 5 4 3 4 4 4 4 4 5 6 6 8 7 7 6 5 4 4 3 3 3 2 2 1
3 5 6 7 8 8 8 8 9 9 10 10 9 8 8 7 6 6 6 5 4 3 4 4 3 3 4 5 5 6 6 8 8 8 6 5 5 4 4 4 3 2 1
3 4 5 6 7 8 8 8 8 8 9 9 9 8 8 6 5 6 5 5 4 4 4 3 3 3 4 4 5 5 6 6 8 8 7 5 5 4 4 5 5 3 1
3 4 5 5 6 7 7 7 7 8 9 9 8 8 8 8 7 7 6 5 4 4 4 3 2 2 2 3 4 4 4 5 6 6 7 5 5 5 4 4 5 6 4
3 4 5 5 5 5 6 6 6 7 7 8 8 7 8 8 8 7 8 7 7 6 5 5 4 3 1 1 2 3 4 4 4 5 6 5 4 4 4 5 4 4 5
3 4 5 5 5 5 5 5 6 6 7 8 8 8 8 8 8 8 8 8 7 7 7 6 5 4 4 2 1 1 2 3 3 4 6 6 5 5 4 5 5 4 4
4 4 5 4 5 5 5 5 5 5 6 6 7 8 8 8 9 9 9 8 8 7 7 6 6 5 4 4 3 1 1 3 3 4 5 5 5 6 5 4 5 5 4
4 4 4 4 4 4 4 4 4 4 5 6 7 8 8 9 9 8 8 8 8 8 8 7 7 5 5 4 3 2 2 2 2 3 4 5 6 5 4 5 5 4 4
4 3 3 4 4 3 2 3 4 4 4 5 6 7 7 8 8 8 8 8 8 8 8 7 7 6 5 4 3 3 3 3 3 2 3 4 5 6 6 5 5 5 5
4 3 3 3 3 2 2 2 3 3 3 4 5 6 6 7 7 8 8 8 8 9 7 8 8 7 6 5 5 4 5 4 4 4 3 3 4 5 5 5 5 6 5
5 4 3 3 2 3 2 1 2 2 3 4 4 5 6 7 7 7 7 8 8 8 8 8 8 8 7 8 9 6 5 5 5 5 4 4 4 5 6 7 8 8 7
5 5 3 3 3 3 3 2 1 1 3 3 3 4 5 6 7 7 7 7 7 7 8 8 8 8 8 10 10 10 6 6 5 5 4 4 4 5 6 8 8 6 6
6 4 3 2 2 2 3 2 1 2 3 3 3 4 4 5 6 6 7 6 5 6 6 7 8 8 10 13 12 11 8 7 6 5 5 5 4 5 7 8 8 7 6
7 5 4 3 3 3 3 4 2 2 3 2 2 2 3 4 5 6 6 5 5 6 6 6 8 9 9 13 13 11 6 6 7 6 6 5 5 7 10 10 9 9 7
6 5 4 3 3 3 5 5 3 2 1 1 1 1 2 3 4 4 4 4 4 5 5 7 7 8 8 12 12 10 5 6 5 5 6 7 7 9 10 8 9 9 6
7 6 5 4 4 5 6 5 4 3 3 2 0 1 2 2 2 3 4 4 4 5 6 6 7 8 9 11 12 11 5 4 5 5 5 4 8 9 9 8 6 8 7
7 7 6 5 4 6 7 6 5 5 4 2 1 1 2 2 2 3 4 4 5 5 5 5 6 6 7 9 10 12 9 7 6 4 3 5 9 9 9 8 9 11 9
8 7 7 6 5 6 7 7 6 5 4 3 2 1 1 1 2 3 3 3 4 4 3 4 4 4 5 7 11 11 11 10 6 4 6 8 10 10 8 10 11 9 7
8 7 7 7 6 7 7 8 7 6 5 4 3 3 2 1 1 2 2 2 2 2 2 2 2 3 4 5 5 5 5 7 6 5 7 10 11 9 8 8 7 5 5
8 7 8 8 9 8 8 8 7 7 6 5 4 3 4 3 2 1 0 1 1 2 2 1 1 1 1 3 4 3 3 2 2 3 4 4 4 5 5 5 5 4 4
9 8 9 9 9 8 8 8 8 8 7 5 5 4 4 4 3 3 1 2 2 1 2 3 3 1 2 2 3 4 4 3 4 5 4 3 3 4 4 4 3 3 3
Wind_Direction
350 356 360 357 355 352 349 345 342 337 337 331 326 318 314 306 298 286 281 275 266 253 232 232 218 205 201 202 195 186 188 188 152 123 74 12 41 167 179 183 173 186 192
355 351 357 357 351 347 344 343 339 333 330 320 305 287 290 289 285 288 290 283 275 261 246 228 218 210 206 204 201 186 178 184 162 149 129 108 346 327 194 175 176 180 183
353 347 352 349 347 345 340 340 332 331 328 325 320 319 314 309 312 310 301 289 284 270 254 235 221 213 205 206 206 193 180 181 181 163 152 161 199 218 305 191 173 167 169
352 346 347 343 340 335 334 332 331 330 330 331 332 330 324 310 294 291 288 293 286 275 261 239 225 218 209 209 209 197 186 171 176 177 186 171 157 152 170 306 147 161 172
356 350 341 331 330 332 336 335 333 334 334 336 333 329 324 309 304 305 303 301 292 276 267 250 232 222 215 214 212 200 188 182 179 175 166 160 128 124 143 168 170 127 171
350 342 334 335 334 336 338 337 339 335 337 339 341 339 334 329 332 329 321 315 306 290 279 261 239 225 217 214 213 205 198 194 187 184 174 164 163 171 153 153 165 174 204
343 336 338 340 336 337 337 337 342 340 340 343 345 342 336 336 336 326 320 322 319 311 297 276 244 228 220 213 208 204 203 199 193 191 188 183 180 158 154 151 155 161 177
325 327 325 327 329 332 333 337 342 341 342 346 345 342 342 341 336 331 328 324 315 302 299 296 267 237 223 215 204 205 206 203 202 199 188 183 185 171 165 162 155 153 164
313 310 315 320 324 328 328 331 337 340 342 345 344 347 350 350 346 343 341 334 332 332 336 331 302 256 222 210 201 203 202 198 201 197 189 183 187 185 179 167 160 160 170
306 305 309 308 312 320 322 332 339 337 337 346 352 356 350 352 354 360 2 359 356 360 2 5 10 12 352 205 197 200 199 187 191 189 178 179 178 183 187 183 172 164 160
269 278 291 297 307 322 331 342 344 344 347 350 351 354 355 355 359 7 6 4 7 12 16 17 20 26 19 28 73 205 184 176 181 179 181 186 176 183 186 179 171 171 156
251 262 282 302 317 324 329 340 344 348 346 349 355 358 360 2 7 8 4 7 11 13 18 23 25 26 23 33 47 44 136 156 167 175 176 180 174 176 178 173 174 174 165
257 270 292 299 306 311 318 331 339 341 347 358 5 6 4 6 10 8 7 8 13 19 22 26 27 23 21 35 41 56 87 116 137 159 170 173 163 166 164 164 166 163 155
247 265 285 285 291 295 303 323 336 337 354 10 15 12 5 4 7 9 12 13 18 25 26 28 25 24 25 33 47 62 70 80 83 104 134 147 157 160 159 162 162 154 145
242 246 258 267 276 274 291 313 338 346 6 22 19 9 3 7 12 15 15 16 22 27 24 27 23 19 23 36 46 56 75 75 71 69 89 114 130 151 160 157 154 150 147
227 236 249 254 257 241 240 277 340 352 30 36 17 8 13 15 13 13 15 20 22 21 24 26 25 23 27 37 47 59 70 74 74 69 65 81 96 115 125 136 147 153 153
212 219 233 239 241 228 207 208 237 35 49 40 18 10 16 18 11 14 19 19 19 23 25 24 25 23 20 38 56 62 68 68 63 63 64 78 86 90 95 101 105 108 123
201 210 224 234 227 203 183 167 120 74 65 46 18 6 14 15 9 14 15 13 19 25 25 24 23 26 31 47 58 64 66 65 57 52 61 74 73 87 102 100 91 82 77
194 197 199 191 180 176 161 133 114 90 76 50 7 348 4 13 13 11 6 8 23 29 27 25 28 30 28 41 53 62 64 64 55 47 51 67 80 94 101 101 100 91 77
182 181 174 163 162 170 146 131 136 131 145 218 292 329 0 19 14 6 7 14 32 35 35 36 31 32 29 35 47 59 67 68 58 46 41 57 83 96 101 103 108 104 93
185 175 168 173 183 170 147 143 163 190 211 209 221 5 7 21 27 19 23 32 40 42 38 37 31 30 26 29 39 50 61 70 68 58 43 46 81 93 98 99 103 115 112
185 177 175 192 194 175 157 162 193 213 207 190 177 4 1 21 65 48 35 39 48 50 39 37 30 22 17 24 34 47 58 70 77 64 43 53 72 85 97 98 104 106 101
191 187 183 193 201 191 175 180 207 203 190 181 196 204 84 58 76 78 60 43 45 56 46 46 39 15 8 16 31 41 50 56 67 60 62 67 70 74 82 96 102 101 100
195 192 184 191 205 206 201 199 198 190 181 190 207 197 172 145 88 77 79 73 52 56 59 62 50 22 12 10 9 16 30 40 50 51 55 63 67 68 69 75 77 83 104
197 189 190 200 211 207 209 209 196 182 184 199 207 199 191 180 169 150 125 152 227 206 173 186 175 109 12 330 352 24 23 22 39 68 59 57 61 66 62 63 67 74 89
196 195 199 205 209 204 209 210 197 185 184 197 206 203 198 194 186 183 235 305 258 268 213 202 193 231 246 299 1 20 28 48 84 89 81 84 91 98 97 92 79 74 90
Height
1558 1555 1552 1548 1545 1540 1537 1533 1529 1526 1522 1519 1516 1514 1512 1511 1510 1509 1508 1509 1509 1510 1510 1512 1513 1515 1517 1519 1522 1524 1527 1529 1532 1534 1537 1539 1540 1542 1543 1545 1546 1548 1550
1557 1554 1551 1547 1543 1539 1535 1531 1527 1523 1520 1517 1514 1511 1509 1507 1505 1505 1504 1504 1504 1505 1505 1506 1508 1510 1512 1514 1517 1520 1522 1525 1528 1530 1533 1535 1538 1538 1540 1542 1543 1545 1547
1557 1553 1550 1546 1542 1538 1533 1529 1525 1522 1518 1515 1511 1509 1506 1504 1502 1501 1500 1499 1499 1499 1500 1501 1503 1505 1507 1509 1512 1514 1517 1520 1523 1526 1528 1531 1532 1534 1537 1538 1540 1542 1544
1556 1553 1549 1545 1541 1537 1533 1529 1524 1521 1517 1513 1510 1506 1503 1500 1499 1497 1496 1495 1495 1495 1496 1497 1498 1500 1502 1504 1506 1509 1512 1515 1517 1520 1523 1527 1528 1530 1532 1535 1537 1539 1540
1556 1553 1549 1545 1541 1537 1533 1528 1524 1520 1516 1512 1508 1505 1502 1499 1496 1495 1493 1492 1491 1491 1492 1492 1494 1495 1497 1499 1501 1504 1507 1510 1512 1515 1518 1521 1524 1526 1528 1530 1533 1535 1537
1556 1553 1549 1545 1541 1537 1533 1528 1524 1520 1516 1512 1508 1504 1501 1497 1495 1492 1491 1490 1489 1489 1489 1489 1490 1491 1493 1495 1497 1499 1502 1505 1508 1510 1513 1516 1519 1521 1524 1526 1529 1531 1534
1555 1552 1548 1545 1541 1537 1533 1529 1524 1520 1516 1512 1507 1504 1501 1497 1494 1492 1490 1489 1487 1487 1486 1486 1487 1488 1489 1491 1493 1495 1498 1500 1503 1505 1508 1511 1515 1518 1520 1523 1526 1528 1530
1554 1552 1548 1545 1541 1537 1533 1529 1525 1521 1517 1513 1508 1505 1501 1498 1495 1492 1490 1488 1486 1485 1484 1484 1484 1485 1486 1488 1490 1491 1493 1496 1498 1501 1504 1507 1510 1513 1516 1519 1522 1524 1527
1554 1551 1548 1545 1541 1538 1534 1530 1526 1522 1518 1514 1510 1506 1502 1498 1495 1492 1490 1487 1485 1484 1483 1482 1482 1482 1483 1484 1487 1488 1490 1492 1495 1497 1500 1502 1505 1509 1512 1515 1517 1521 1522
1553 1551 1548 1545 1542 1538 1535 1531 1527 1523 1519 1515 1511 1507 1503 1500 1496 1493 1490 1488 1485 1483 1482 1481 1480 1480 1480 1482 1484 1485 1487 1489 1491 1493 1496 1498 1501 1505 1508 1510 1513 1515 1519
1553 1550 1548 1545 1542 1539 1535 1532 1528 1524 1520 1516 1513 1509 1505 1501 1498 1494 1491 1488 1486 1484 1482 1480 1479 1479 1479 1480 1482 1483 1485 1486 1488 1491 1493 1495 1498 1501 1504 1506 1508 1511 1514
1552 1550 1547 1545 1542 1539 1536 1532 1529 1525 1522 1518 1514 1511 1507 1503 1499 1496 1493 1490 1487 1485 1483 1481 1480 1479 1479 1479 1480 1481 1482 1484 1486 1488 1490 1493 1495 1498 1501 1503 1505 1508 1511
1551 1549 1547 1545 1542 1539 1536 1533 1530 1527 1523 1520 1516 1512 1509 1505 1501 1498 1495 1492 1489 1486 1484 1483 1481 1481 1480 1480 1480 1481 1482 1483 1485 1487 1489 1491 1493 1495 1498 1500 1503 1506 1508
1550 1548 1546 1544 1542 1539 1536 1534 1531 1528 1525 1521 1518 1514 1510 1507 1504 1500 1497 1494 1491 1488 1486 1485 1483 1482 1482 1481 1481 1482 1482 1483 1485 1486 1488 1490 1492 1494 1496 1498 1501 1504 1506
1548 1547 1546 1544 1541 1539 1537 1534 1531 1529 1526 1522 1519 1516 1513 1510 1506 1503 1500 1497 1494 1491 1489 1487 1486 1484 1483 1483 1483 1483 1483 1484 1485 1486 1488 1489 1491 1493 1495 1497 1499 1502 1505
1547 1546 1545 1543 1541 1539 1537 1534 1532 1529 1527 1524 1521 1518 1515 1512 1508 1505 1503 1500 1497 1495 1492 1490 1488 1486 1485 1485 1485 1485 1485 1486 1487 1488 1489 1490 1491 1493 1495 1497 1500 1502 1504
1546 1545 1544 1542 1541 1539 1537 1535 1532 1530 1527 1525 1522 1519 1517 1514 1511 1508 1505 1503 1500 1498 1495 1493 1491 1489 1488 1487 1486 1486 1487 1488 1489 1490 1490 1491 1493 1495 1496 1498 1500 1503 1505
1544 1544 1543 1542 1540 1539 1537 1535 1533 1530 1528 1526 1523 1521 1518 1516 1513 1511 1508 1505 1503 1501 1498 1496 1495 1493 1491 1490 1489 1489 1489 1490 1491 1491 1492 1493 1495 1496 1498 1499 1501 1503 1505
1542 1542 1542 1541 1540 1538 1537 1535 1533 1531 1529 1526 1524 1522 1520 1518 1515 1513 1510 1508 1506 1504 1501 1499 1498 1496 1495 1494 1493 1493 1493 1493 1494 1494 1495 1496 1497 1498 1499 1501 1502 1504 1506
1541 1541 1541 1540 1539 1538 1536 1535 1533 1531 1529 1527 1525 1523 1521 1519 1517 1515 1513 1511 1508 1506 1504 1502 1501 1500 1498 1498 1497 1497 1496 1496 1497 1497 1497 1498 1499 1501 1502 1503 1505 1506 1508
1539 1540 1540 1539 1538 1537 1536 1535 1533 1531 1530 1528 1527 1525 1523 1521 1519 1517 1515 1513 1511 1509 1507 1505 1504 1503 1502 1501 1500 1500 1500 1499 1500 1500 1500 1501 1502 1503 1505 1506 1507 1509 1510
1537 1538 1538 1538 1537 1537 1536 1534 1533 1531 1530 1529 1527 1526 1524 1523 1521 1519 1517 1515 1513 1511 1510 1508 1507 1506 1505 1504 1503 1503 1503 1503 1503 1503 1503 1504 1505 1506 1507 1509 1510 1511 1512
1535 1536 1536 1536 1536 1536 1535 1534 1533 1531 1530 1529 1528 1527 1525 1524 1522 1521 1519 1517 1515 1514 1512 1511 1509 1508 1507 1507 1506 1506 1505 1505 1505 1505 1506 1507 1508 1509 1510 1511 1512 1514 1515
1533 1534 1534 1534 1534 1534 1534 1533 1532 1531 1530 1529 1528 1527 1526 1525 1523 1522 1521 1519 1517 1516 1514 1513 1512 1511 1510 1509 1509 1508 1508 1508 1508 1508 1509 1509 1510 1511 1512 1513 1514 1516 1517
1530 1531 1531 1532 1532 1532 1532 1532 1531 1530 1530 1529 1528 1527 1526 1525 1524 1523 1522 1520 1519 1517 1516 1515 1514 1513 1512 1511 1511 1510 1510 1510 1511 1511 1511 1512 1513 1513 1514 1515 1516 1517 1518
1527 1528 1528 1529 1529 1530 1530 1530 1529 1529 1528 1528 1527 1526 1526 1525 1524 1523 1522 1521 1520 1519 1517 1516 1515 1514 1513 1512 1512 1512 1512 1512 1512 1513 1513 1513 1514 1515 1515 1516 1517 1518 1519